Flag for United Kingdom Weather past 2 weeks in Lichfield, England, United Kingdom

Now
61 °F

Scattered clouds.


Feels Like: 61 °F
Forecast: 43 / 68 °F
Wind: 14 mph from Northwest

Location: Birmingham / Airport

Current Time: Jul 30, 2015 at 1:38:30 PM

Latest Report: Jul 30, 2015 at 12:50 PM


Visibility: N/A

Pressure: 30.09 "Hg

Humidity: 52%

Dew point: 43 °F

Location of LichfieldLocation

Historic Weather in Lichfield — Graph

°F

Lichfield temperature yesterday

Maximum temperature yesterday: 61 °F (at 12:20 PM)
Minimum temperature yesterday: 50 °F (at 3:20 AM)
Average temperature yesterday: 56 °F

Past Weeks' High & Low Weather Summary

 TemperatureHumidityPressure
High75 °F (Jul 16, 4:50 PM)100% (Jul 19, 6:50 AM)30.12 "Hg (Jul 19, 6:50 AM)
Low46 °F (Jul 16, 4:20 AM)38% (Jul 19, 3:20 PM)29.36 "Hg (Jul 26, 7:50 PM)
Average60 °F73%29.84 "Hg
* Reported Jul 15 12:20 PM — Jul 30 12:20 PM, Lichfield, Weather by CustomWeather, © 2015

Note: Actual official high and low records may vary slightly from our data, if they occured in-between our weather recording intervals... More about our weather records

Advertising

Lichfield weather history for previous 24 hours

 ConditionsComfort  
Time TempWeatherWind HumidityBarometerVisibility
12:20 PM
Thu, Jul 30
59 °FPartly sunny.14 mph55%30.09 "HgN/A
11:50 AM61 °FScattered clouds.15 mph55%30.09 "HgN/A
11:20 AM59 °FScattered clouds.17 mph59%30.07 "HgN/A
10:50 AM59 °FScattered clouds.16 mph63%30.07 "HgN/A
10:20 AM57 °FScattered clouds.13 mph67%30.07 "HgN/A
9:50 AM55 °FScattered clouds.16 mph72%30.07 "HgN/A
9:20 AM55 °FScattered clouds.15 mph72%30.07 "HgN/A
8:50 AM55 °FPartly sunny.13 mph72%30.04 "HgN/A
8:20 AM54 °FScattered clouds.13 mph77%30.04 "HgN/A
7:50 AM54 °FPassing clouds.9 mph77%30.04 "HgN/A
7:20 AM52 °FScattered clouds.9 mph82%30.04 "HgN/A
6:50 AM52 °FPassing clouds.9 mph82%30.04 "HgN/A
6:20 AM52 °FPassing clouds.9 mph82%30.01 "HgN/A
5:50 AM52 °FClear.8 mph82%30.01 "Hg10 mi
5:20 AM52 °FClear.8 mph82%30.01 "Hg10 mi
4:50 AM52 °FClear.10 mph82%30.01 "Hg10 mi
4:20 AM52 °FClear.9 mph82%30.01 "Hg10 mi
3:50 AM52 °FClear.8 mph82%30.01 "Hg10 mi
3:20 AM52 °FClear.10 mph82%30.01 "Hg10 mi
2:50 AM52 °FClear.9 mph82%30.01 "Hg10 mi
2:20 AM52 °FClear.9 mph82%30.01 "Hg10 mi
1:50 AM52 °FClear.9 mph82%30.01 "Hg10 mi
1:20 AM52 °FClear.9 mph82%30.01 "Hg10 mi
12:50 AM54 °FClear.10 mph77%30.01 "Hg10 mi
12:20 AM54 °FClear.10 mph77%30.01 "Hg10 mi
11:50 PM
Wed, Jul 29
54 °FClear.12 mph82%29.98 "Hg10 mi
11:20 PM54 °FClear.10 mph82%29.98 "Hg10 mi
10:50 PM55 °FClear.9 mph82%29.98 "Hg10 mi
10:20 PM55 °FClear.9 mph82%29.98 "Hg10 mi
9:50 PM55 °FPassing clouds.6 mph82%29.98 "HgN/A
9:20 PM54 °FScattered showers. Passing clouds.7 mph94%29.95 "HgN/A
8:50 PM57 °FSprinkles. Scattered clouds.10 mph77%29.95 "HgN/A
8:20 PM57 °FScattered showers. Scattered clouds.9 mph77%29.95 "HgN/A
7:50 PM59 °FScattered showers. Scattered clouds.10 mph72%29.92 "HgN/A
7:20 PM57 °FScattered clouds.8 mph77%29.92 "HgN/A
6:50 PM57 °FLight rain. Scattered clouds.6 mph82%29.92 "HgN/A
6:20 PM55 °FSprinkles. Broken clouds.15 mph82%29.92 "HgN/A
5:50 PM61 °FScattered showers. Scattered clouds.8 mph59%29.92 "HgN/A
5:20 PM61 °FScattered clouds.9 mph59%29.92 "HgN/A
4:50 PM61 °FScattered showers. Scattered clouds.10 mph55%29.89 "HgN/A
4:20 PM61 °FScattered showers. Scattered clouds.13 mph59%29.89 "HgN/A
3:50 PM61 °FScattered showers. Passing clouds.9 mph68%29.89 "HgN/A
3:20 PM61 °FSprinkles. Scattered clouds.13 mph59%29.89 "HgN/A
2:50 PM61 °FCool.10 mph63%29.89 "HgN/A
2:20 PM57 °FScattered showers. Scattered clouds.8 mph77%29.89 "HgN/A
1:50 PM59 °FScattered clouds.13 mph68%29.86 "HgN/A
1:20 PM59 °FScattered clouds.10 mph72%29.86 "HgN/A
Weather by CustomWeather, © 2015

See weather overviewHow to use our weather pages